Precipitable_Water
0.63 0.46 0.34 0.44 0.55 0.49 0.53 0.49 0.45 0.55 0.67 0.62 0.62 0.69 0.81 0.85 0.82 0.62 0.50 0.46 0.47 0.52 0.62 0.71 0.72 0.81 0.92 0.85 0.72 0.75 0.80 0.83 0.86 0.85 0.81 0.83 0.81 0.88 0.90 0.95 1.02 1.05 1.04 1.02
0.55 0.38 0.43 0.53 0.58 0.55 0.59 0.54 0.54 0.59 0.64 0.60 0.64 0.68 0.77 0.80 0.81 0.80 0.61 0.51 0.45 0.47 0.54 0.62 0.67 0.74 0.84 0.88 0.81 0.74 0.76 0.80 0.81 0.82 0.84 0.85 0.87 0.90 0.93 0.99 1.05 1.08 1.05 1.03
0.43 0.45 0.54 0.50 0.50 0.46 0.55 0.57 0.56 0.52 0.59 0.61 0.59 0.58 0.66 0.77 0.82 0.86 0.84 0.65 0.54 0.46 0.47 0.55 0.61 0.65 0.72 0.81 0.88 0.84 0.80 0.82 0.83 0.84 0.84 0.86 0.94 0.98 0.97 0.99 1.01 1.04 1.04 1.02
0.51 0.55 0.48 0.45 0.43 0.48 0.41 0.61 0.59 0.57 0.49 0.41 0.58 0.37 0.56 0.67 0.70 0.77 0.82 0.73 0.58 0.51 0.48 0.51 0.58 0.62 0.65 0.71 0.85 0.93 0.92 0.87 0.87 0.90 0.85 0.82 0.78 0.77 0.88 0.95 1.02 1.02 1.01 0.97
0.46 0.46 0.47 0.46 0.43 0.52 0.48 0.59 0.59 0.57 0.51 0.49 0.45 0.40 0.40 0.56 0.55 0.66 0.70 0.79 0.76 0.56 0.51 0.50 0.51 0.54 0.62 0.70 0.72 0.81 0.89 0.90 0.89 0.88 0.86 0.83 0.81 0.85 0.92 0.94 0.96 0.95 0.96 0.99
0.58 0.63 0.55 0.54 0.56 0.56 0.56 0.50 0.52 0.55 0.52 0.36 0.40 0.38 0.34 0.40 0.45 0.58 0.69 0.73 0.82 0.79 0.50 0.50 0.55 0.59 0.63 0.69 0.73 0.75 0.79 0.80 0.86 0.86 0.87 0.84 0.83 0.83 0.85 0.89 0.88 0.93 0.97 0.96
0.56 0.56 0.60 0.61 0.49 0.58 0.52 0.44 0.33 0.29 0.34 0.28 0.41 0.37 0.34 0.43 0.50 0.55 0.66 0.68 0.74 0.81 0.69 0.50 0.49 0.56 0.59 0.61 0.64 0.70 0.71 0.69 0.79 0.84 0.83 0.85 0.87 0.88 0.85 0.87 0.90 0.91 0.94 0.93
0.41 0.37 0.53 0.61 0.51 0.43 0.44 0.40 0.29 0.21 0.21 0.22 0.37 0.25 0.31 0.38 0.44 0.54 0.65 0.59 0.60 0.68 0.71 0.73 0.71 0.63 0.61 0.61 0.60 0.63 0.64 0.62 0.74 0.77 0.76 0.83 0.89 0.88 0.88 0.91 0.95 0.95 0.95 0.97
0.42 0.42 0.59 0.58 0.58 0.53 0.47 0.40 0.45 0.31 0.31 0.26 0.27 0.29 0.36 0.34 0.33 0.40 0.45 0.46 0.50 0.62 0.64 0.67 0.67 0.70 0.74 0.66 0.63 0.61 0.61 0.62 0.67 0.72 0.75 0.79 0.84 0.86 0.84 0.89 0.96 0.97 0.98 1.01
0.50 0.38 0.56 0.63 0.64 0.60 0.50 0.54 0.34 0.35 0.21 0.19 0.21 0.25 0.25 0.30 0.33 0.34 0.38 0.39 0.41 0.51 0.56 0.54 0.50 0.53 0.61 0.68 0.66 0.68 0.64 0.63 0.66 0.73 0.77 0.76 0.79 0.84 0.86 0.90 0.90 0.94 0.99 0.98
0.53 0.45 0.46 0.54 0.49 0.47 0.46 0.43 0.44 0.41 0.34 0.24 0.20 0.23 0.36 0.34 0.26 0.25 0.31 0.36 0.37 0.38 0.39 0.45 0.49 0.49 0.54 0.56 0.61 0.57 0.58 0.58 0.63 0.70 0.73 0.76 0.77 0.79 0.85 0.87 0.91 0.93 0.95 0.92
0.55 0.48 0.40 0.43 0.54 0.57 0.52 0.44 0.43 0.32 0.31 0.34 0.30 0.25 0.31 0.29 0.32 0.32 0.28 0.32 0.39 0.39 0.39 0.44 0.46 0.47 0.48 0.53 0.57 0.53 0.51 0.51 0.55 0.63 0.67 0.71 0.78 0.82 0.81 0.82 0.86 0.93 0.90 0.93
0.53 0.44 0.34 0.38 0.47 0.57 0.48 0.48 0.47 0.43 0.40 0.29 0.25 0.23 0.37 0.38 0.37 0.36 0.32 0.32 0.35 0.37 0.39 0.41 0.44 0.46 0.46 0.49 0.51 0.52 0.51 0.50 0.53 0.58 0.65 0.70 0.72 0.76 0.78 0.81 0.84 0.86 0.86 0.87
0.56 0.46 0.38 0.29 0.31 0.42 0.39 0.45 0.49 0.45 0.35 0.29 0.29 0.27 0.33 0.35 0.35 0.36 0.36 0.40 0.39 0.37 0.38 0.40 0.40 0.40 0.45 0.48 0.50 0.52 0.53 0.57 0.59 0.59 0.63 0.70 0.72 0.75 0.75 0.82 0.83 0.85 0.86 0.87
0.52 0.40 0.42 0.40 0.40 0.42 0.41 0.41 0.44 0.41 0.32 0.32 0.24 0.26 0.31 0.36 0.37 0.40 0.42 0.43 0.43 0.41 0.40 0.39 0.40 0.42 0.42 0.43 0.46 0.49 0.53 0.55 0.59 0.59 0.60 0.66 0.76 0.78 0.79 0.78 0.80 0.85 0.88 0.87
0.53 0.40 0.41 0.37 0.40 0.41 0.37 0.40 0.43 0.40 0.35 0.39 0.30 0.28 0.39 0.39 0.42 0.40 0.41 0.41 0.39 0.40 0.40 0.40 0.41 0.44 0.44 0.43 0.42 0.46 0.49 0.53 0.57 0.58 0.59 0.63 0.66 0.70 0.74 0.78 0.78 0.79 0.81 0.76
0.49 0.43 0.38 0.32 0.38 0.35 0.28 0.30 0.34 0.32 0.37 0.32 0.28 0.24 0.39 0.39 0.41 0.40 0.39 0.38 0.37 0.38 0.39 0.41 0.41 0.41 0.44 0.46 0.46 0.44 0.47 0.51 0.52 0.55 0.58 0.60 0.60 0.61 0.63 0.65 0.66 0.62 0.64 0.71
0.48 0.44 0.41 0.33 0.35 0.23 0.28 0.34 0.34 0.31 0.33 0.37 0.34 0.35 0.39 0.40 0.40 0.41 0.41 0.38 0.38 0.39 0.41 0.43 0.44 0.42 0.43 0.47 0.47 0.46 0.49 0.48 0.49 0.50 0.53 0.54 0.57 0.58 0.61 0.58 0.60 0.63 0.65 0.63
0.53 0.44 0.36 0.29 0.25 0.28 0.29 0.30 0.30 0.30 0.28 0.37 0.34 0.36 0.36 0.36 0.39 0.34 0.40 0.40 0.39 0.40 0.41 0.43 0.46 0.47 0.48 0.49 0.49 0.47 0.46 0.49 0.47 0.48 0.50 0.53 0.57 0.59 0.62 0.62 0.61 0.61 0.62 0.64
0.48 0.45 0.35 0.30 0.23 0.18 0.26 0.32 0.37 0.38 0.21 0.31 0.32 0.30 0.32 0.35 0.25 0.29 0.36 0.38 0.39 0.41 0.43 0.43 0.44 0.44 0.45 0.48 0.50 0.49 0.47 0.47 0.48 0.51 0.53 0.57 0.58 0.59 0.62 0.66 0.70 0.70 0.70 0.72
0.36 0.36 0.30 0.27 0.23 0.25 0.32 0.33 0.37 0.21 0.21 0.29 0.32 0.31 0.32 0.28 0.31 0.36 0.39 0.38 0.41 0.43 0.44 0.46 0.45 0.43 0.45 0.48 0.49 0.48 0.50 0.48 0.52 0.55 0.58 0.61 0.64 0.62 0.63 0.64 0.66 0.68 0.70 0.71
0.31 0.29 0.28 0.29 0.22 0.17 0.35 0.33 0.25 0.29 0.31 0.30 0.30 0.31 0.30 0.33 0.35 0.36 0.37 0.39 0.40 0.42 0.43 0.45 0.45 0.45 0.48 0.49 0.47 0.46 0.47 0.53 0.55 0.55 0.57 0.58 0.62 0.67 0.65 0.64 0.65 0.69 0.72 0.73
0.31 0.33 0.29 0.28 0.26 0.34 0.35 0.32 0.35 0.35 0.32 0.33 0.34 0.35 0.35 0.35 0.36 0.38 0.39 0.41 0.43 0.44 0.47 0.50 0.49 0.50 0.51 0.52 0.52 0.49 0.51 0.54 0.54 0.54 0.55 0.58 0.60 0.63 0.67 0.67 0.66 0.68 0.67 0.67
0.37 0.41 0.31 0.30 0.34 0.34 0.35 0.37 0.38 0.37 0.37 0.39 0.40 0.39 0.40 0.38 0.40 0.41 0.42 0.43 0.44 0.45 0.46 0.48 0.49 0.48 0.49 0.52 0.54 0.55 0.57 0.58 0.57 0.55 0.55 0.57 0.57 0.60 0.63 0.66 0.68 0.68 0.69 0.68
0.36 0.37 0.32 0.31 0.35 0.37 0.37 0.39 0.40 0.40 0.41 0.41 0.42 0.43 0.42 0.42 0.42 0.44 0.44 0.45 0.45 0.46 0.48 0.49 0.48 0.49 0.51 0.53 0.54 0.56 0.57 0.58 0.57 0.57 0.58 0.58 0.59 0.60 0.61 0.62 0.63 0.64 0.66 0.67
0.40 0.35 0.31 0.30 0.39 0.37 0.37 0.41 0.43 0.41 0.41 0.43 0.42 0.42 0.44 0.44 0.43 0.44 0.44 0.46 0.48 0.49 0.50 0.50 0.50 0.50 0.51 0.53 0.53 0.54 0.57 0.59 0.58 0.58 0.59 0.60 0.61 0.61 0.61 0.61 0.62 0.65 0.67 0.67
Wind_Speed
42 41 45 42 40 35 31 31 32 25 23 25 29 30 29 30 34 31 28 25 25 25 24 24 25 25 25 25 25 26 26 25 25 24 24 23 23 22 22 21 21 20 19 19
40 48 44 38 39 37 30 31 32 24 21 24 26 29 28 31 32 34 33 30 28 26 26 25 26 27 27 27 27 27 27 27 27 26 25 25 25 24 24 24 23 23 22 21
47 43 43 41 39 39 39 33 29 26 24 24 23 30 30 30 32 31 36 35 32 29 28 28 28 28 28 29 28 28 29 29 29 28 27 27 26 26 26 26 25 25 24 24
45 41 46 43 41 38 38 33 31 23 23 24 23 23 28 27 31 31 32 38 37 34 32 30 29 30 29 30 30 30 30 30 30 30 29 29 29 28 28 28 27 27 27 26
42 45 43 44 42 38 30 29 28 25 24 23 25 24 22 24 28 29 28 34 39 37 34 32 31 31 32 32 32 32 32 32 31 31 31 31 31 30 30 30 30 29 28 28
37 36 39 39 37 35 31 25 21 21 23 27 31 28 25 26 27 25 24 25 31 39 38 35 33 32 33 34 34 33 34 34 34 34 34 34 34 33 32 32 32 31 30 30
35 36 35 35 37 34 32 29 21 25 24 26 20 28 31 21 21 21 21 22 22 29 37 38 37 35 35 35 36 36 36 36 36 36 36 37 36 36 36 35 34 33 33 32
37 34 40 36 38 33 37 37 27 26 28 26 24 28 24 22 22 21 24 22 22 23 25 31 37 39 38 38 38 38 38 38 38 39 39 38 39 38 38 38 37 36 35 35
35 30 33 39 35 36 32 34 27 22 21 22 26 27 27 26 25 25 25 25 24 24 25 27 30 33 39 40 40 39 40 39 40 40 39 40 40 40 39 39 39 38 37 36
34 30 32 29 31 32 36 32 25 26 25 25 26 27 26 21 20 20 19 22 23 24 26 27 27 30 33 38 40 41 41 41 41 41 41 41 41 41 41 41 41 40 39 38
35 31 31 34 35 33 32 33 30 28 27 24 23 23 21 21 15 17 16 17 18 19 22 25 27 29 31 34 37 40 41 41 42 43 42 42 42 42 42 42 42 42 41 41
32 29 30 31 30 36 37 34 34 28 27 28 23 27 20 18 14 12 12 14 16 18 20 21 23 25 27 30 33 36 39 41 42 43 43 44 43 43 43 43 43 43 43 43
34 29 27 26 27 29 33 35 35 29 24 32 28 30 26 29 27 23 20 18 17 18 19 20 22 24 26 28 30 34 36 38 42 43 44 46 46 46 45 45 44 45 44 44
35 31 34 35 36 30 33 36 35 33 27 31 34 33 25 23 22 22 23 23 24 24 24 23 23 23 25 27 29 32 35 37 38 40 41 44 46 46 46 46 46 46 46 46
34 29 29 27 29 31 33 34 34 36 40 31 37 38 32 32 31 32 31 30 29 30 28 27 26 25 26 27 29 30 34 36 37 38 40 41 42 44 45 45 45 46 46 46
33 27 26 24 27 30 31 34 36 38 40 37 39 37 28 30 31 30 31 33 35 35 32 32 31 31 30 29 30 30 32 33 35 38 38 39 39 41 42 43 44 45 45 46
34 28 26 25 26 24 25 36 36 35 36 36 33 37 25 27 27 30 32 32 32 32 34 35 35 34 33 34 32 32 32 32 33 35 36 37 37 39 41 42 43 44 45 45
33 28 24 23 23 23 24 25 34 35 33 35 34 30 29 31 33 32 32 32 33 34 35 35 37 38 37 35 34 33 33 32 31 32 33 35 36 38 40 41 41 42 43 43
32 25 21 22 27 19 23 23 28 28 30 31 34 32 32 32 31 32 31 32 33 33 33 33 35 37 37 37 36 35 34 33 33 32 32 34 36 36 37 37 37 38 38 39
30 30 23 22 22 23 16 20 21 23 22 25 29 29 27 26 27 25 23 24 25 26 27 28 29 29 32 34 35 35 35 34 34 33 33 33 33 34 35 36 36 36 36 36
32 29 26 22 20 19 17 18 18 17 17 15 20 20 21 22 23 21 23 23 24 24 25 26 26 26 27 28 30 32 33 34 35 34 35 35 35 34 34 34 34 34 33 32
29 28 24 21 20 19 20 19 19 14 14 14 16 17 18 19 20 20 20 20 20 21 22 22 22 22 23 24 25 27 29 31 33 34 35 36 36 36 36 35 35 35 35 35
26 27 23 23 20 12 22 18 17 15 15 16 16 17 17 17 17 17 17 16 15 15 16 17 18 18 19 20 21 23 25 26 27 29 31 32 33 34 35 37 36 37 36 36
25 26 22 20 22 21 20 18 18 17 15 14 13 13 14 13 13 13 13 14 14 14 15 16 17 18 19 20 20 22 23 24 25 26 28 29 31 33 34 35 36 36 37 38
25 25 24 22 19 20 21 20 19 18 16 15 12 13 13 13 12 13 14 14 15 16 16 16 17 18 19 21 22 23 24 25 26 27 28 28 29 30 31 32 32 33 34 35
22 22 25 22 22 21 20 23 22 20 19 18 17 15 15 15 14 14 14 15 16 17 18 19 20 21 22 22 23 24 26 27 28 29 29 31 32 33 33 34 34 35 36 37
Wind_Direction
213 214 215 214 217 222 223 224 224 226 229 230 235 241 243 241 239 238 237 237 236 234 233 229 225 223 223 222 221 221 221 223 223 225 227 230 232 233 234 236 239 242 247 251
212 218 215 218 216 218 222 224 223 230 226 233 240 241 241 241 239 239 238 237 237 235 233 230 228 226 225 225 225 225 226 227 228 229 232 234 236 238 239 240 243 246 250 254
214 218 215 216 216 217 220 224 223 226 227 236 244 247 245 243 244 244 239 238 236 237 235 232 230 229 228 228 228 229 230 231 232 233 236 237 239 241 241 244 246 248 252 256
217 216 212 216 217 216 220 222 227 221 225 237 232 248 245 244 243 242 241 238 236 235 237 236 233 232 231 231 232 233 233 234 235 236 238 239 241 242 244 246 249 251 254 257
210 211 210 213 215 215 223 217 222 228 233 240 234 244 244 240 243 242 250 240 235 235 235 237 236 235 235 234 235 235 236 238 238 239 240 242 243 245 247 249 250 253 255 258
210 215 210 215 213 213 210 213 219 229 235 240 236 236 240 243 246 248 248 248 239 233 233 237 238 238 237 237 237 238 238 239 240 241 242 243 245 247 248 250 251 253 256 258
205 207 212 213 207 205 208 206 217 225 228 233 233 232 241 250 250 251 252 250 244 234 234 237 238 239 239 239 239 240 240 241 242 243 244 245 247 248 250 251 252 253 255 257
203 209 206 208 207 211 210 212 218 226 229 239 234 238 243 243 248 251 246 251 250 241 237 240 241 241 241 241 241 241 242 243 243 245 246 247 248 250 251 252 254 255 256 257
202 208 209 209 209 205 213 216 221 227 232 236 234 242 248 249 251 252 251 250 248 242 245 245 246 246 243 243 243 243 244 245 245 247 248 248 249 249 252 253 254 256 257 258
206 205 210 204 206 215 214 212 220 227 229 237 237 241 243 248 249 255 252 248 248 250 250 249 251 251 249 246 245 244 245 246 247 249 249 250 250 251 252 253 254 256 257 258
201 204 210 208 214 209 210 216 220 224 230 236 240 239 236 240 252 250 251 250 249 253 257 257 255 255 256 250 247 245 246 247 249 250 251 251 252 252 253 253 255 256 256 258
201 204 206 213 219 218 220 219 219 226 227 236 247 242 236 235 244 248 251 246 251 256 257 260 261 260 259 252 249 247 248 249 250 251 251 252 253 253 254 254 255 256 257 258
200 205 202 210 216 215 216 219 221 225 234 232 236 244 244 243 252 253 254 258 261 258 260 264 267 265 262 258 254 252 252 254 253 253 253 254 254 255 255 255 256 257 257 258
205 208 211 214 215 213 218 218 220 223 231 235 236 244 239 243 248 251 254 258 262 262 260 266 268 269 267 263 260 258 257 257 256 255 255 255 256 256 256 256 257 257 257 258
208 211 213 221 217 213 218 217 219 223 232 232 242 244 246 255 259 262 263 266 264 262 262 262 265 268 270 268 265 264 261 259 258 257 257 258 257 256 256 256 257 258 258 259
210 211 210 219 214 216 220 220 222 227 234 238 247 252 254 257 257 260 263 263 263 262 262 264 264 266 268 270 268 267 265 262 261 260 259 259 259 259 258 258 258 259 259 259
204 207 213 217 212 214 228 222 221 229 230 233 239 244 250 256 259 261 264 265 265 266 265 265 266 266 267 268 268 267 266 265 264 262 261 260 261 260 260 260 261 260 260 259
204 204 211 211 210 221 229 226 226 229 234 235 243 248 253 258 263 264 265 266 266 268 268 267 266 267 270 266 267 266 265 264 265 264 262 262 262 262 261 262 262 262 261 259
199 199 204 207 216 229 225 227 221 224 238 237 242 249 253 257 262 266 267 268 268 267 268 270 270 269 268 266 265 264 264 263 264 264 264 264 263 263 263 263 262 262 261 259
198 201 204 209 213 222 223 219 223 220 247 237 236 245 250 255 256 260 266 272 273 271 271 271 272 271 270 267 265 262 263 263 263 263 263 264 264 264 264 263 262 262 260 258
195 200 206 210 216 227 220 213 207 226 245 237 232 241 247 248 253 259 265 270 272 271 273 274 273 273 273 271 266 264 263 264 263 263 264 265 264 264 265 265 264 261 258 255
192 195 203 207 212 224 207 206 219 237 237 233 235 244 250 254 257 261 266 269 272 271 272 274 272 274 275 274 272 269 269 269 267 266 266 266 265 266 265 264 265 262 259 257
200 202 204 211 216 218 213 225 224 230 226 236 244 250 252 252 254 259 263 269 275 278 277 276 276 278 282 282 280 279 278 276 273 271 270 270 269 268 267 265 263 261 260 257
208 207 212 213 224 221 216 221 222 225 231 236 241 244 245 241 244 250 260 267 271 276 279 282 281 283 286 288 286 283 282 280 279 277 276 274 271 270 269 268 265 263 262 260
210 207 214 223 223 217 224 224 221 226 226 225 233 239 237 236 245 251 258 265 270 275 280 282 285 287 288 289 289 288 286 283 281 279 278 276 275 273 271 269 267 266 265 263
214 217 217 221 222 226 225 221 226 228 229 230 236 243 246 245 249 255 263 268 273 277 280 282 283 286 288 290 292 293 291 288 284 283 281 278 276 274 272 271 270 270 268 266